Simultaneous Nadir Overpasses (SNOs) Predictions

Prediction of SNOs between GOES-16 and METOP-A Satellite Orbit:

Table of predicted SNOs for the next 14.0 days since TLE Epoch: 1/14/2022
Index Date Time (GOES-16) GOES-16 Lat,Lon METOP-A Lat,Lon Distance(km) Time Diff (sec)
1 01/15/2022 12:44:02 -0.04, -75.20 -0.86, -71.28 445.44 80
2 01/16/2022 01:04:14 0.03, -75.17 -0.01, -75.51 37.59 80
3 01/16/2022 13:19:37 -0.03, -75.20 0.82, -79.21 456.15 80
4 01/18/2022 12:45:53 -0.03, -75.19 -0.82, -71.59 410.36 80
5 01/19/2022 01:06:10 0.03, -75.17 -0.12, -75.83 75.13 80
6 01/19/2022 13:21:27 -0.02, -75.19 0.91, -79.51 490.77 80
7 01/21/2022 12:47:43 -0.02, -75.20 -0.70, -71.89 376.60 80
8 01/22/2022 01:08:04 0.01, -75.18 -0.21, -76.15 110.64 80
9 01/24/2022 12:49:34 -0.01, -75.22 -0.68, -72.20 343.71 80
10 01/25/2022 01:09:58 0.01, -75.20 -0.27, -76.47 144.55 80
11 01/27/2022 12:51:26 -0.01, -75.24 -0.62, -72.52 310.85 80
12 01/28/2022 01:11:50 0.01, -75.22 -0.36, -76.78 177.70 80
